• în România
  • Lista ţărilor
  • Pe 7 zile
  • Temperatura apei
  • Hartă satelitară
  • Meteo pe hartă
  • Widget-uri
  • user-avatar
    Intrare

    Meteo pe oră la Sozopol

    Astăzi, 23 Septembrie, Duminică

    Timp Temperatura Precipitaţii Vânt Presiune Umiditate
    00:00 +21°C° 0 mm 1 m/s 759 mmHg 75%
    01:00 +21°C° 0 mm 1 m/s 759 mmHg 74%
    02:00 +20°C° 0 mm 2 m/s 759 mmHg 70%
    03:00 +20°C° 0 mm 2 m/s 759 mmHg 69%
    04:00 +20°C° 0 mm 2 m/s 759 mmHg 68%
    05:00 +19°C° 0 mm 2 m/s 760 mmHg 67%
    06:00 +21°C° 0 mm 2 m/s 760 mmHg 62%
    07:00 +23°C° 0 mm 2 m/s 760 mmHg 57%
    08:00 +25°C° 0 mm 2 m/s 760 mmHg 51%
    09:00 +26°C° 0 mm 3 m/s 760 mmHg 47%
    10:00 +28°C° 0 mm 3 m/s 761 mmHg 42%
    11:00 +30°C° 0 mm 4 m/s 761 mmHg 37%
    12:00 +32°C° 0 mm 4 m/s 761 mmHg 36%
    13:00 +32°C° 0 mm 4 m/s 761 mmHg 35%
    14:00 +33°C° 0 mm 4 m/s 760 mmHg 34%
    15:00 +32°C° 0 mm 4 m/s 760 mmHg 39%
    16:00 +30°C° 0 mm 4 m/s 760 mmHg 44%
    17:00 +28°C° 0 mm 4 m/s 760 mmHg 49%
    18:00 +26°C° 0 mm 3 m/s 760 mmHg 59%
    19:00 +24°C° 0 mm 3 m/s 760 mmHg 69%
    20:00 +21°C° 0 mm 3 m/s 760 mmHg 79%
    21:00 +21°C° 0 mm 3 m/s 760 mmHg 81%
    22:00 +21°C° 0 mm 2 m/s 760 mmHg 83%
    23:00 +20°C° 0 mm 2 m/s 760 mmHg 85%

    Mâine, 24 Septembrie, Luni

    Timp Temperatura Precipitaţii Vânt Presiune Umiditate
    00:00 +20°C° 0 mm 2 m/s 760 mmHg 85%
    01:00 +20°C° 0 mm 2 m/s 760 mmHg 86%
    02:00 +20°C° 0 mm 2 m/s 759 mmHg 86%
    03:00 +20°C° 0 mm 2 m/s 759 mmHg 85%
    04:00 +20°C° 0 mm 2 m/s 758 mmHg 85%
    05:00 +20°C° 0 mm 2 m/s 758 mmHg 84%
    06:00 +21°C° 0 mm 2 m/s 757 mmHg 76%
    07:00 +24°C° 0 mm 2 m/s 757 mmHg 68%
    08:00 +25°C° 0 mm 2 m/s 757 mmHg 59%
    09:00 +27°C° 0 mm 3 m/s 756 mmHg 49%
    10:00 +30°C° 0 mm 4 m/s 756 mmHg 39%
    11:00 +33°C° 0 mm 4 m/s 756 mmHg 29%
    12:00 +34°C° 0 mm 4 m/s 755 mmHg 26%
    13:00 +35°C° 0 mm 4 m/s 754 mmHg 24%
    14:00 +36°C° 0 mm 5 m/s 754 mmHg 22%
    15:00 +35°C° 0 mm 4 m/s 754 mmHg 24%
    16:00 +35°C° 0 mm 4 m/s 754 mmHg 26%
    17:00 +34°C° 0 mm 4 m/s 754 mmHg 29%
    18:00 +30°C° 0 mm 6 m/s 755 mmHg 33%
    19:00 +26°C° 0 mm 9 m/s 756 mmHg 38%
    20:00 +22°C° 0 mm 11 m/s 757 mmHg 43%
    21:00 +21°C° 0 mm 11 m/s 758 mmHg 45%
    22:00 +19°C° 0 mm 10 m/s 759 mmHg 46%
    23:00 +18°C° 0 mm 10 m/s 760 mmHg 48%

    Poimâine, 25 Septembrie, Marţi

    Timp Temperatura Precipitaţii Vânt Presiune Umiditate
    00:00 +17°C° 0 mm 10 m/s 761 mmHg 50%
    01:00 +16°C° 0 mm 9 m/s 761 mmHg 52%
    02:00 +15°C° 0 mm 9 m/s 762 mmHg 54%
    03:00 +15°C° 0 mm 8 m/s 762 mmHg 54%
    04:00 +15°C° 0 mm 7 m/s 762 mmHg 54%
    05:00 +14°C° 0 mm 7 m/s 763 mmHg 54%
    06:00 +14°C° 0.1 mm 6 m/s 763 mmHg 54%
    07:00 +14°C° 0.1 mm 6 m/s 764 mmHg 55%
    08:00 +14°C° 0.1 mm 6 m/s 765 mmHg 55%
    09:00 +15°C° 0 mm 6 m/s 765 mmHg 49%
    10:00 +16°C° 0 mm 6 m/s 765 mmHg 43%
    11:00 +19°C° 0 mm 6 m/s 765 mmHg 37%
    12:00 +20°C° 0 mm 6 m/s 765 mmHg 32%
    13:00 +20°C° 0 mm 6 m/s 765 mmHg 27%
    14:00 +21°C° 0 mm 6 m/s 765 mmHg 22%
    15:00 +21°C° 0 mm 6 m/s 765 mmHg 23%
    16:00 +20°C° 0 mm 6 m/s 765 mmHg 24%
    17:00 +19°C° 0 mm 6 m/s 765 mmHg 24%
    18:00 +17°C° 0 mm 6 m/s 766 mmHg 32%
    19:00 +15°C° 0 mm 6 m/s 766 mmHg 39%
    20:00 +14°C° 0 mm 6 m/s 767 mmHg 47%
    21:00 +13°C° 0 mm 6 m/s 767 mmHg 47%
    22:00 +12°C° 0 mm 7 m/s 768 mmHg 47%
    23:00 +11°C° 0 mm 7 m/s 768 mmHg 48%

    26 Septembrie, Miercuri

    Timp Temperatura Precipitaţii Vânt Presiune Umiditate
    00:00 +11°C° 0 mm 7 m/s 768 mmHg 48%
    01:00 +10°C° 0 mm 8 m/s 768 mmHg 48%
    02:00 +10°C° 0 mm 8 m/s 769 mmHg 49%
    03:00 +10°C° 0 mm 8 m/s 769 mmHg 49%
    04:00 +9°C° 0 mm 8 m/s 769 mmHg 50%
    05:00 +8°C° 0 mm 9 m/s 769 mmHg 50%
    06:00 +8°C° 0 mm 9 m/s 769 mmHg 48%
    07:00 +10°C° 0 mm 9 m/s 770 mmHg 46%
    08:00 +11°C° 0 mm 9 m/s 770 mmHg 44%
    09:00 +12°C° 0 mm 9 m/s 770 mmHg 40%
    10:00 +13°C° 0 mm 10 m/s 770 mmHg 36%
    11:00 +14°C° 0 mm 10 m/s 770 mmHg 31%
    12:00 +16°C° 0 mm 10 m/s 770 mmHg 30%
    13:00 +16°C° 0 mm 10 m/s 769 mmHg 29%
    14:00 +16°C° 0 mm 9 m/s 769 mmHg 28%
    15:00 +16°C° 0 mm 9 m/s 769 mmHg 30%
    16:00 +15°C° 0 mm 9 m/s 769 mmHg 31%
    17:00 +15°C° 0 mm 9 m/s 769 mmHg 33%
    18:00 +13°C° 0 mm 9 m/s 769 mmHg 35%
    19:00 +12°C° 0 mm 9 m/s 770 mmHg 38%
    20:00 +10°C° 0 mm 9 m/s 770 mmHg 40%
    21:00 +10°C° 0 mm 9 m/s 770 mmHg 41%
    22:00 +10°C° 0 mm 9 m/s 770 mmHg 41%
    23:00 +8°C° 0 mm 9 m/s 770 mmHg 42%

    27 Septembrie, Joi

    Timp Temperatura Precipitaţii Vânt Presiune Umiditate
    00:00 +9°C° 0 mm 8 m/s 770 mmHg 42%
    01:00 +7°C° 0 mm 8 m/s 769 mmHg 43%
    02:00 +7°C° 0 mm 8 m/s 769 mmHg 43%
    03:00 +6°C° 0 mm 8 m/s 769 mmHg 44%
    04:00 +6°C° 0 mm 8 m/s 768 mmHg 45%
    05:00 +5°C° 0 mm 8 m/s 768 mmHg 47%
    06:00 +6°C° 0.1 mm 8 m/s 768 mmHg 44%
    07:00 +7°C° 0.1 mm 9 m/s 768 mmHg 42%
    08:00 +8°C° 0.1 mm 9 m/s 768 mmHg 39%
    09:00 +11°C° 0.1 mm 9 m/s 768 mmHg 38%
    10:00 +13°C° 0.1 mm 9 m/s 767 mmHg 37%
    11:00 +16°C° 0.1 mm 8 m/s 767 mmHg 35%
    12:00 +16°C° 0.1 mm 8 m/s 766 mmHg 35%
    13:00 +17°C° 0.1 mm 8 m/s 766 mmHg 36%
    14:00 +18°C° 0.1 mm 8 m/s 765 mmHg 36%
    15:00 +17°C° 0.1 mm 8 m/s 765 mmHg 37%
    16:00 +17°C° 0.1 mm 8 m/s 765 mmHg 37%
    17:00 +17°C° 0.1 mm 8 m/s 764 mmHg 38%
    18:00 +15°C° 0 mm 7 m/s 764 mmHg 42%
    19:00 +14°C° 0 mm 7 m/s 764 mmHg 47%
    20:00 +12°C° 0 mm 7 m/s 764 mmHg 52%
    21:00 +11°C° 0 mm 7 m/s 764 mmHg 53%
    22:00 +11°C° 0 mm 7 m/s 764 mmHg 55%
    23:00 +11°C° 0 mm 7 m/s 763 mmHg 57%

    28 Septembrie, Vineri

    Timp Temperatura Precipitaţii Vânt Presiune Umiditate
    00:00 +11°C° 0 mm 7 m/s 763 mmHg 55%
    01:00 +11°C° 0 mm 7 m/s 763 mmHg 54%
    02:00 +10°C° 0 mm 7 m/s 763 mmHg 53%
    03:00 +11°C° 0 mm 7 m/s 762 mmHg 51%
    04:00 +11°C° 0 mm 7 m/s 762 mmHg 50%
    05:00 +11°C° 0 mm 7 m/s 762 mmHg 49%
    06:00 +12°C° 0 mm 8 m/s 762 mmHg 46%
    07:00 +13°C° 0 mm 8 m/s 762 mmHg 43%
    08:00 +15°C° 0 mm 8 m/s 762 mmHg 40%
    09:00 +17°C° 0 mm 8 m/s 762 mmHg 39%
    10:00 +20°C° 0 mm 8 m/s 762 mmHg 38%
    11:00 +21°C° 0 mm 8 m/s 762 mmHg 37%
    12:00 +22°C° 0 mm 8 m/s 761 mmHg 38%
    13:00 +22°C° 0 mm 8 m/s 761 mmHg 39%
    14:00 +23°C° 0 mm 8 m/s 760 mmHg 41%
    15:00 +22°C° 0 mm 7 m/s 760 mmHg 46%
    16:00 +21°C° 0 mm 7 m/s 760 mmHg 51%
    17:00 +21°C° 0 mm 7 m/s 760 mmHg 56%
    18:00 +19°C° 0 mm 6 m/s 760 mmHg 65%
    19:00 +17°C° 0 mm 6 m/s 760 mmHg 75%
    20:00 +16°C° 0 mm 6 m/s 761 mmHg 84%
    21:00 +15°C° 0 mm 5 m/s 761 mmHg 86%
    22:00 +15°C° 0 mm 5 m/s 761 mmHg 88%
    23:00 +15°C° 0 mm 5 m/s 760 mmHg 90%
    Arată mai mult